Location: Asheville, NC
(35.6000°N, 82.5500°W)
Time: 15:55:00
(UTC-05:00)

Vanguard 2 Rocket - Pass Details

Date: 14 December 2017
Orbit: 556 x 3326 km, 32.9° (Epoch: 20 January)

Event Time Altitude Azimuth Distance (km) Brightness Sun altitude
Rises 23:06:19 0° 276° (W) 6,050 11.4 -68.9°
Reaches altitude 10° 23:09:48 10° 275° (W) 5,327 10.9 -69.5°
Enters shadow 23:14:27 26° 273° (W) 4,461 10.3 -70.3°
